Overview Statistics Trail Chart Weather Telemetry Raw packets
 

This is the latest recevied weather packets stored in our database for station/object K7PMV-13. If no packets are shown the sender has not sent any weather packets the latest 10 day(s).

<< 64 65 66 67 68 69 70 >>
Time Temp. Humidity Pressure Rain* Wind** Luminosity Snow
1777154844 30° C 22% 1004.5 hPa 0 mm - 740 W/m² -
1777154542 30° C 22% 1004.5 hPa 0 mm - 745 W/m² -
1777154239 30° C 22% 1004.6 hPa 0 mm - 770 W/m² -
1777153937 30° C 22% 1004.6 hPa 0 mm - 777 W/m² -
1777153634 29.44° C 23% 1004.7 hPa 0 mm - 763 W/m² -
1777153332 29.44° C 22% 1004.7 hPa 0 mm - 789 W/m² -
1777153029 29.44° C 23% 1004.8 hPa 0 mm - 680 W/m² -
1777152727 29.44° C 22% 1004.9 hPa 0 mm - 844 W/m² -
1777152424 28.89° C 21% 1004.9 hPa 0 mm - 824 W/m² -
1777152121 29.44° C 22% 1005 hPa 0 mm - 833 W/m² -
1777151818 29.44° C 23% 1005 hPa 0 mm - 847 W/m² -
1777151515 28.89° C 23% 1005.1 hPa 0 mm - 847 W/m² -
1777151212 28.89° C 22% 1005.1 hPa 0 mm - 856 W/m² -
1777150909 29.44° C 23% 1005.1 hPa 0 mm - 868 W/m² -
1777150606 29.44° C 23% 1005.1 hPa 0 mm - 861 W/m² -
1777150303 28.89° C 23% 1005.1 hPa 0 mm - 923 W/m² -
1777150000 28.33° C 23% 1005.1 hPa 0 mm - 108 W/m² -
1777149698 28.89° C 23% 1005.3 hPa 0 mm - 104 W/m² -
1777149395 28.89° C 23% 1005.4 hPa 0 mm - 283 W/m² -
1777149092 29.44° C 24% 1005.4 hPa 0 mm - 104 W/m² -
1777148724 28.89° C 24% 1005.5 hPa 0 mm - 103 W/m² -
1777148421 28.33° C 25% 1005.5 hPa 0 mm - 108 W/m² -
1777148118 28.33° C 24% 1005.5 hPa 0 mm - 842 W/m² -
1777147815 27.78° C 24% 1005.7 hPa 0 mm - 893 W/m² -
1777147512 27.78° C 24% 1005.7 hPa 0 mm - 645 W/m² -

* Rain latest hour (hover to see other rain measurements)
** Current wind speed in m/s (hover to see current wind gust speed)